Погода в Среднем Балтаево

Россия / Республика Татарстан     55°13′26″N   48°17′21″E
темп.,
°C
ветер,
м/с
пор.,
м/с
влажн.,
%
обл.,
%
осадки,
мм/ч
давл.,
гПа
погр.,
м
12 апреля, пн
пн1200:00+2ссв4996100 3.5 1034189
03:00+2св3893100 6.9 1036202
06:00+2ссв3995100 2.9 1036253
09:00+3всв51287100 3.2 1037268
12:00+8всв5872100 0.0 1037426
15:00+10всв6107099 0.0 1037454
18:00+7в51080100 0.0 1037270
21:00+5в399295 0.0 1037188
13 апреля, вт
вт1300:00+6в369672 0.0 1037138
03:00+5вюв3697100 0.0 103797
06:00+6юв3597100 0.0 1036103
09:00+11ююв458090 0.0 1036284
12:00+16ююв466314 0.0 1034661
15:00+17ю575348 0.0 1033896
18:00+14ю366928 0.0 1032120
21:00+11ююв337849 0.0 103225
14 апреля, ср
ср1400:00+9ю23835 0.0 103222
03:00+8ю22805 0.0 103116
06:00+7ююв227517 0.0 103129
09:00+12ююв455613 0.0 1030350
12:00+16ююв56478 0.0 1028806
15:00+17ююв56485 0.0 10271058
18:00+14ююв35655 0.0 102588
21:00+11ююв22795 0.0 102521
15 апреля, чт
чт1500:00+9ююв22865 0.0 102417
03:00+8ююв22885 0.0 102412
06:00+8ююв22884 0.0 102327
09:00+13ю34710 0.0 1022364
12:00+16ю34530 0.0 1021998
15:00+17ююз44440 0.0 10201385
18:00+15ююв22555 0.0 101924
21:00+12ю226397 0.0 101911
16 апреля, пт
пт1600:00+10юз11690 0.0 101810
03:00+9зсз117444 0.0 101810
06:00+9сз127582 0.0 101810
09:00+14с346082 0.0 1018382
12:00+17ссв555238 0.0 10181299
15:00+16ссв665140 0.3 10191597
18:00+8ссв8117692 0.1 1022665
21:00+6св5137610 0.1 1024656